TimeEST,TemperatureF,Dew PointF,Humidity,Sea Level PressureIn,VisibilityMPH,Wind Direction,Wind SpeedMPH,Gust SpeedMPH,PrecipitationIn,Events,Conditions,WindDirDegrees,DateUTC
12:54 AM,34.0,30.9,89,29.72,8.0,NW,5.8,-,N/A,,Overcast,310,2012-12-18 05:54:00
1:33 AM,35.6,32.0,87,29.71,9.0,NW,5.8,-,N/A,,Overcast,320,2012-12-18 06:33:00
1:54 AM,36.0,30.9,82,29.73,10.0,NW,9.2,-,N/A,,Overcast,320,2012-12-18 06:54:00
2:54 AM,35.1,28.9,78,29.74,10.0,NW,5.8,-,N/A,,Overcast,320,2012-12-18 07:54:00
3:54 AM,32.0,27.0,82,29.75,10.0,West,4.6,-,N/A,,Clear,280,2012-12-18 08:54:00
4:54 AM,30.0,25.0,82,29.75,10.0,West,5.8,-,N/A,,Clear,270,2012-12-18 09:54:00
5:54 AM,30.9,26.1,82,29.76,10.0,Calm,Calm,-,N/A,,Overcast,0,2012-12-18 10:54:00
6:50 AM,32.0,28.4,87,29.76,10.0,WSW,3.5,-,N/A,,Overcast,240,2012-12-18 11:50:00
6:54 AM,32.0,28.4,87,29.76,10.0,WSW,3.5,-,N/A,,Overcast,240,2012-12-18 11:54:00
7:54 AM,33.1,28.0,82,29.80,10.0,SSW,6.9,-,N/A,,Overcast,210,2012-12-18 12:54:00
8:37 AM,30.2,26.6,86,29.78,7.0,SSW,6.9,-,N/A,,Scattered Clouds,210,2012-12-18 13:37:00
8:54 AM,32.0,28.0,85,29.81,6.0,SW,6.9,-,N/A,,Partly Cloudy,220,2012-12-18 13:54:00
9:19 AM,33.8,28.4,81,29.79,4.0,SSW,5.8,-,N/A,,Mostly Cloudy,210,2012-12-18 14:19:00
9:43 AM,33.8,30.2,87,29.79,4.0,SSW,6.9,-,N/A,,Partly Cloudy,200,2012-12-18 14:43:00
9:50 AM,33.8,30.2,87,29.79,4.0,SSW,8.1,-,N/A,,Mostly Cloudy,200,2012-12-18 14:50:00
9:54 AM,33.1,30.0,89,29.81,4.0,SSW,8.1,-,N/A,,Mostly Cloudy,210,2012-12-18 14:54:00
10:54 AM,35.1,30.0,82,29.82,6.0,South,8.1,-,N/A,,Haze,190,2012-12-18 15:54:00
11:06 AM,35.6,28.4,75,29.80,7.0,SSW,8.1,-,N/A,,Overcast,210,2012-12-18 16:06:00
11:54 AM,35.1,28.9,78,29.81,7.0,SSW,13.8,-,N/A,,Overcast,200,2012-12-18 16:54:00
12:54 PM,36.0,28.9,76,29.79,7.0,SSW,11.5,-,N/A,,Overcast,200,2012-12-18 17:54:00
1:37 PM,35.6,28.4,75,29.73,6.0,SSE,6.9,-,0.00,Snow,Light Snow,150,2012-12-18 18:37:00
1:43 PM,35.6,28.4,75,29.72,2.0,SSE,9.2,-,0.00,Snow,Snow,150,2012-12-18 18:43:00
1:51 PM,35.6,30.2,81,29.71,3.0,SSE,9.2,-,0.00,Snow,Light Snow,150,2012-12-18 18:51:00
1:54 PM,36.0,30.0,79,29.73,4.0,SE,10.4,-,0.00,Snow,Light Snow,140,2012-12-18 18:54:00
2:54 PM,37.9,30.9,76,29.71,8.0,SSE,12.7,-,0.00,,Mostly Cloudy,160,2012-12-18 19:54:00
3:16 PM,37.4,30.2,75,29.69,8.0,SSE,16.1,-,N/A,,Mostly Cloudy,150,2012-12-18 20:16:00
3:29 PM,37.4,30.2,75,29.67,8.0,SSE,13.8,-,N/A,,Scattered Clouds,160,2012-12-18 20:29:00
3:54 PM,37.9,30.0,73,29.70,8.0,South,12.7,-,N/A,,Scattered Clouds,170,2012-12-18 20:54:00
4:33 PM,37.4,30.2,75,29.66,7.0,SE,13.8,-,N/A,,Overcast,130,2012-12-18 21:33:00
4:54 PM,37.9,30.9,76,29.67,7.0,SE,12.7,-,N/A,,Overcast,140,2012-12-18 21:54:00
5:54 PM,39.0,32.0,76,29.70,10.0,SSE,8.1,-,N/A,,Overcast,150,2012-12-18 22:54:00
6:09 PM,39.2,32.0,75,29.68,10.0,SSE,8.1,-,N/A,,Overcast,150,2012-12-18 23:09:00
6:47 PM,39.2,33.8,81,29.68,9.0,SSE,9.2,-,N/A,,Overcast,150,2012-12-18 23:47:00
6:54 PM,39.0,33.1,79,29.69,9.0,SSE,9.2,-,N/A,,Overcast,150,2012-12-18 23:54:00
7:54 PM,39.0,34.0,82,29.70,7.0,South,6.9,-,0.00,Rain,Light Rain,180,2012-12-19 00:54:00
8:54 PM,39.0,35.1,86,29.70,5.0,SSE,6.9,-,0.02,Rain,Light Rain,160,2012-12-19 01:54:00
9:24 PM,39.2,35.6,87,29.68,6.0,Calm,Calm,-,0.00,,Overcast,0,2012-12-19 02:24:00
9:49 PM,39.2,35.6,87,29.69,7.0,Calm,Calm,-,0.00,,Overcast,0,2012-12-19 02:49:00
9:54 PM,39.0,35.1,86,29.70,8.0,Calm,Calm,-,0.00,,Overcast,0,2012-12-19 02:54:00
10:10 PM,39.2,35.6,87,29.68,8.0,SSE,3.5,-,N/A,,Overcast,160,2012-12-19 03:10:00
10:35 PM,39.2,35.6,87,29.68,6.0,SSE,3.5,-,N/A,,Overcast,150,2012-12-19 03:35:00
10:54 PM,39.0,36.0,89,29.72,6.0,Calm,Calm,-,N/A,,Overcast,0,2012-12-19 03:54:00
11:54 PM,37.9,36.0,93,29.73,5.0,Calm,Calm,-,N/A,,Overcast,0,2012-12-19 04:54:00